Content
SEND FEEDBACK

Daily
Averages
Monthly
Summary
France

SAINT-AVOLD, FRANCE


Home > Europe > France
Elevation: 820 feet     Latitude: 49 01N     Longitude: 006 43E

WEATHER
 
SELECT A DAY
Number of Records: 344,673;   Date Range: 2/20/97 - 8/10/14
 
SHARE

PRINT THIS DATA

[ ← Previous Day ]
WEATHER ALMANAC - JANUARY 31, 2013
[ Next Day → ]
[ °C ]   °F
Weather ElementAverageHighLow
Temperature44.2 °F48.2 °F (12:00 pm)39.2 °F (5:00 am)
Dewpoint38.7 °F42.8 °F (5:00 pm)35.6 °F (1:30 am)
Humidity81 %93 % (9:00 am)66 % (12:00 pm)
Barometer30.12 in30.21 in (2:00 am)30.04 in (2:30 pm)
Wind Speed18.1 mph31.1 mph (1:00 pm)
Wind Gust43.7 mph (1:30 pm)
Weather ElementAverage
Visibility6.1 mi
Wind DirectionSW (229.4 °)

Weather ElementTotal
Precipitation---
Heating Degree Days21.3 (Base 65)
Averaged from 47 records on January 31, 2013
WEATHER CONDITIONS BREAKOUT
WIND DIRECTION BREAKOUT
WEATHER BY HOUR - JANUARY 31, 2013
[ °C ]   °F
Local TimeTemperatureDewpointHumidityBarometerVisibilityWind DirectionWind SpeedGust SpeedPrecipitationEventsConditions
12:30 AM44.6 °F37.4 °F76 %30.18 in6.2 miWSW (250°)15.0 mph
1:00 AM42.8 °F37.4 °F81 %30.18 in6.2 miSW (220°)12.7 mph
1:30 AM41.0 °F35.6 °F81 %30.18 in6.2 miSouth (190°)11.5 mph
2:00 AM42.8 °F37.4 °F81 %30.21 in6.2 miSouth (180°)11.5 mphMostly Cloudy
2:30 AM42.8 °F37.4 °F81 %30.21 in6.2 miSSW (210°)13.8 mphOvercast
3:00 AM41.0 °F35.6 °F81 %30.21 in6.2 miWSW (240°)15.0 mphOvercast
3:30 AM42.8 °F35.6 °F76 %30.21 in6.2 miWest (260°)18.4 mph
4:00 AM41.0 °F35.6 °F81 %30.21 in6.2 miWest (260°)16.1 mph
4:30 AM41.0 °F35.6 °F81 %30.21 in6.2 miWSW (250°)16.1 mph
5:00 AM39.2 °F35.6 °F87 %30.21 in6.2 miWSW (240°)12.7 mphMostly Cloudy
5:30 AM39.2 °F35.6 °F87 %30.21 in6.2 miSW (230°)13.8 mphPartly Cloudy
6:00 AM39.2 °F35.6 °F87 %30.21 in6.2 miSSW (210°)12.7 mphMostly Cloudy
6:30 AM39.2 °F35.6 °F87 %30.21 in6.2 miSouth (190°)10.4 mph
7:00 AM39.2 °F35.6 °F87 %30.21 in6.2 miSSW (210°)15.0 mph
7:30 AM39.2 °F35.6 °F87 %30.18 in6.2 miSouth (190°)15.0 mphOvercast
8:00 AM39.2 °F35.6 °F87 %30.18 in6.2 miSouth (190°)15.0 mphOvercast
8:30 AM41.0 °F37.4 °F87 %30.18 in6.2 miSSW (200°)13.8 mphOvercast
9:00 AM41.0 °F39.2 °F93 %30.15 in6.2 miSSW (210°)13.8 mphOvercast
9:30 AM41.0 °F39.2 °F93 %30.15 in6.2 miSSW (210°)16.1 mphOvercast
10:00 AM44.6 °F39.2 °F81 %30.15 in6.2 miSSW (210°)18.4 mphMostly Cloudy
10:30 AM44.6 °F39.2 °F81 %30.15 in6.2 miSW (220°)23.0 mphOvercast
11:00 AM44.6 °F39.2 °F81 %30.15 in6.2 miSW (230°)26.5 mphMostly Cloudy
11:30 AM46.4 °F39.2 °F76 %30.12 in6.2 miSW (220°)21.9 mph
12:00 PM48.2 °F37.4 °F66 %30.12 in6.2 miSW (230°)26.5 mph
12:30 PM48.2 °F37.4 °F66 %30.12 in6.2 miSW (230°)29.9 mphMostly Cloudy
1:00 PM46.4 °F37.4 °F71 %30.12 in6.2 miWSW (250°)31.1 mphOvercast
1:30 PM46.4 °F37.4 °F71 %30.09 in6.2 miSW (230°)26.5 mph43.7 mphOvercast
2:00 PM46.4 °F37.4 °F71 %30.06 in6.2 miWSW (240°)28.8 mphOvercast
2:30 PM48.2 °F39.2 °F71 %30.04 in6.2 miWSW (240°)29.9 mph43.7 mphOvercast
3:00 PM48.2 °F39.2 °F71 %30.04 in6.2 miWSW (240°)28.8 mph43.7 mphOvercast
3:30 PM46.4 °F39.2 °F76 %30.04 in6.2 miWSW (240°)26.5 mphOvercast
4:00 PM48.2 °F39.2 °F71 %30.04 in6.2 miWSW (250°)25.3 mphOvercast
4:30 PM46.4 °F41.0 °F81 %30.04 in6.2 miWSW (250°)23.0 mphRainLight Rain
5:00 PM44.6 °F42.8 °F93 %30.04 in2.8 miWSW (240°)20.7 mphRainLight Rain
5:30 PM46.4 °F42.8 °F87 %30.04 in6.2 miWSW (240°)21.9 mphOvercast
6:00 PM46.4 °F41.0 °F81 %30.04 in6.2 miWSW (240°)21.9 mphMostly Cloudy
6:30 PM46.4 °F41.0 °F81 %30.04 in6.2 miSW (230°)20.7 mphOvercast
7:00 PM46.4 °F41.0 °F81 %30.06 in6.2 miWSW (250°)18.4 mphOvercast
7:30 PM46.4 °F42.8 °F87 %30.06 in6.2 miWSW (250°)13.8 mphOvercast
8:00 PM46.4 °F42.8 °F87 %30.06 in6.2 miWSW (240°)13.8 mphOvercast
8:30 PM46.4 °F41.0 °F81 %30.06 in6.2 miWSW (240°)12.7 mphOvercast
9:00 PM46.4 °F42.8 °F87 %30.06 in6.2 miWSW (240°)12.7 mphMostly Cloudy
9:30 PM48.2 °F41.0 °F76 %30.09 in6.2 miWSW (250°)13.8 mphOvercast
10:00 PM46.4 °F41.0 °F81 %30.06 in6.2 miWSW (240°)10.4 mphOvercast
10:30 PM46.4 °F41.0 °F81 %30.06 in6.2 miWSW (240°)11.5 mphOvercast
11:00 PM46.4 °F41.0 °F81 %30.06 in6.2 miSW (230°)10.4 mphOvercast
11:30 PM44.6 °F41.0 °F87 %30.06 in6.2 miSW (230°)11.5 mphOvercast
Hourly data recorded from LFJL, located miles away from Saint-Avold, France







STORIES FROM OUR PARTNERS